Location: D?uga
(50.2667°N, 19.7833°E)
Time: 02:11:26
(UTC+00:00)

Lacrosse 5 rocket - Pass Details

Date: 23 May 2024
Orbit: 445 x 572 km, 57.0° (Epoch: 18 June)

Event Time Altitude Azimuth Distance (km) Brightness Sun altitude
Rises 01:22:07 0° 297° (WNW) 2,721 4.7 -10.3°
Reaches altitude 10° 01:24:41 10° 284° (WNW) 1,801 3.7 -10.1°
Maximum altitude 01:27:57 24° 230° (SW) 1,126 2.3 -9.7°
Drops below altitude 10° 01:31:07 10° 176° (S) 1,728 3.4 -9.4°
Sets 01:33:32 0° 162° (SSE) 2,582 4.4 -9.2°
